TimeEST,TemperatureF,Dew PointF,Humidity,Sea Level PressureIn,VisibilityMPH,Wind Direction,Wind SpeedMPH,Gust SpeedMPH,PrecipitationIn,Events,Conditions,WindDirDegrees,DateUTC
12:53 AM,54.0,52.0,93,30.07,9.0,NW,5.8,-,N/A,,Clear,320,2012-11-25 05:53:00
1:53 AM,54.0,51.1,90,30.07,10.0,NW,6.9,-,N/A,,Clear,310,2012-11-25 06:53:00
2:53 AM,52.0,48.9,89,30.07,10.0,NW,5.8,-,N/A,,Clear,320,2012-11-25 07:53:00
3:53 AM,51.1,48.0,89,30.07,10.0,NW,5.8,-,N/A,,Clear,320,2012-11-25 08:53:00
4:53 AM,50.0,46.0,86,30.07,10.0,NW,3.5,-,N/A,,Clear,320,2012-11-25 09:53:00
5:53 AM,48.9,45.0,86,30.08,10.0,Calm,Calm,-,N/A,,Clear,0,2012-11-25 10:53:00
6:53 AM,48.9,45.0,86,30.09,10.0,NW,4.6,-,N/A,,Clear,310,2012-11-25 11:53:00
7:53 AM,52.0,46.9,83,30.12,10.0,NW,5.8,-,N/A,,Clear,320,2012-11-25 12:53:00
8:53 AM,59.0,50.0,72,30.14,10.0,NW,4.6,-,N/A,,Clear,320,2012-11-25 13:53:00
9:53 AM,64.9,51.1,61,30.15,10.0,NNW,5.8,-,N/A,,Clear,330,2012-11-25 14:53:00
10:53 AM,69.1,52.0,54,30.15,10.0,Variable,4.6,-,N/A,,Clear,0,2012-11-25 15:53:00
11:53 AM,71.1,51.1,49,30.14,10.0,North,9.2,-,N/A,,Clear,10,2012-11-25 16:53:00
12:53 PM,73.0,51.1,46,30.11,10.0,North,6.9,-,N/A,,Clear,350,2012-11-25 17:53:00
1:53 PM,72.0,52.0,49,30.09,10.0,NNE,9.2,-,N/A,,Clear,30,2012-11-25 18:53:00
2:53 PM,71.1,52.0,51,30.09,10.0,NNE,9.2,-,N/A,,Clear,20,2012-11-25 19:53:00
3:53 PM,69.1,54.0,58,30.09,10.0,NNE,8.1,-,N/A,,Clear,30,2012-11-25 20:53:00
4:53 PM,66.9,54.0,63,30.10,10.0,North,5.8,-,N/A,,Clear,10,2012-11-25 21:53:00
5:53 PM,61.0,53.1,75,30.11,10.0,NNE,3.5,-,N/A,,Clear,20,2012-11-25 22:53:00
6:53 PM,55.9,52.0,87,30.12,10.0,North,4.6,-,N/A,,Clear,360,2012-11-25 23:53:00
7:53 PM,55.0,52.0,89,30.14,10.0,North,4.6,-,N/A,,Clear,350,2012-11-26 00:53:00
8:53 PM,55.0,52.0,89,30.15,10.0,NNW,3.5,-,N/A,,Clear,340,2012-11-26 01:53:00
9:53 PM,57.0,54.0,89,30.15,9.0,Calm,Calm,-,N/A,,Partly Cloudy,0,2012-11-26 02:53:00
10:53 PM,57.0,54.0,89,30.15,10.0,NNW,4.6,-,N/A,,Clear,340,2012-11-26 03:53:00
11:53 PM,57.0,54.0,89,30.14,10.0,Calm,Calm,-,N/A,,Clear,0,2012-11-26 04:53:00